Regional Weather Roundup
Issued by NWS Cleveland, OH

Home | Current Version | Previous Version | Graphics & Text | Print | Product List | Glossary On
Versions: 1 2 3 4 5 6 7 8 9 10 11 12 13 14 15 16 17 18 19 20 21 22 23 24 25 26 27 28 29 30 31 32 33 34 35 36 37 38 39 40 41 42 43 44 45 46 47 48 49 50
000
ASUS41 KCLE 250802
RWRCLE
OHIO REGIONAL WEATHER ROUNDUP
NATIONAL WEATHER SERVICE CLEVELAND, OH
300 AM EST THU DEC 25 2014

NOTE: "FAIR" INDICATES FEW OR NO CLOUDS BELOW 12,000 FEET WITH NO
SIGNIFICANT WEATHER AND/OR OBSTRUCTIONS TO VISIBILITY.

OHZ001>008-015>018-024>027-034-035-043-044-250900-
   NORTHWEST OHIO

CITY           SKY/WX    TMP DP  RH WIND       PRES   REMARKS
DEFIANCE       CLOUDY    37  33  85 W13G24    29.68R
FINDLAY        CLOUDY    38  33  82 W21G30    29.67R
TOLEDO EXPRESS CLOUDY    37  33  85 SW14G26   29.64R
TOLEDO EXEC    CLOUDY    38  33  82 SW16G24   29.65R
LIMA           LGT RAIN  38  33  82 W16       29.70R
$$

OHZ009>014-019>023-028>033-038-089-250900-
   NORTHEAST OHIO

CITY           SKY/WX    TMP DP  RH WIND       PRES   REMARKS
CLE-HOPKINS    CLOUDY    39  33  79 SW18G28   29.67R
CLE-LAKEFRONT  CLOUDY    41  33  73 SW18G35   29.64R
CUY CO. ARPT   NOT AVBL
LORAIN-ELYRIA  LGT RAIN  39  33  79 W22G33    29.66R
ASHTABULA      CLOUDY    39  32  76 SW18      29.62R
AKRON-CANTON   LGT RAIN  39  32  76 SW14      29.66R
WOOSTER        LGT RAIN  38  33  82 W17       29.68R
MANSFIELD      CLOUDY    37  34  89 SW20G30   29.67R
YOUNGSTOWN     CLOUDY    39  31  72 SW17G26   29.63R
$$

OHZ042-051>053-060>062-070>072-077>081-250900-
  SOUTHWEST OHIO

CITY           SKY/WX    TMP DP  RH WIND       PRES   REMARKS
CINC-COVINGTON CLOUDY    38  32  79 W12G21    29.81R
CINC-LUNKEN    CLOUDY    39  35  86 SW16      29.83R
HAMILTON       CLOUDY    39  34  82 W12G18    29.82R
DAYTON         CLOUDY    38  34  85 W22       29.77R
WRIGHT-PAT AFB NOT AVBL
DAYTON GENERAL CLOUDY    38  34  85 SW13      29.77R
WILMINGTON     CLOUDY    38  32  79 W20G28    29.77R
$$

OHZ036-037-039>041-045>050-054>059-063>069-073>076-082>088-250900-
  CENTRAL AND SOUTHEAST OHIO

CITY           SKY/WX    TMP DP  RH WIND       PRES   REMARKS
COLUMBUS       LGT RAIN  39  33  79 SW21G26   29.74R
OSU AIRPORT    CLOUDY    39  33  79 W13G25    29.74R
BOLTON FIELD   NOT AVBL
RICKENBACK AFB NOT AVBL
NEWARK         CLOUDY    40  34  79 SW17G24   29.73R
MARION         CLOUDY    38  33  82 W15G23    29.71R
LANCASTER      CLOUDY    40  34  79 SW13G23   29.75R
ZANESVILLE     CLOUDY    39  32  76 SW14      29.74R
NEW PHILLY     CLOUDY    41  32  70 SW8       29.72R
$$



USA.gov is the U.S. government's official web portal to all federal, state and local government web resources and services.